TimeEST,TemperatureF,Dew PointF,Humidity,Sea Level PressureIn,VisibilityMPH,Wind Direction,Wind SpeedMPH,Gust SpeedMPH,PrecipitationIn,Events,Conditions,WindDirDegrees,DateUTC
12:53 AM,69.1,64.9,87,30.05,10.0,North,6.9,-,N/A,,Clear,10,2012-11-18 05:53:00
1:53 AM,68.0,64.9,90,30.04,10.0,North,8.1,-,N/A,,Clear,360,2012-11-18 06:53:00
2:53 AM,66.9,64.0,90,30.03,10.0,North,6.9,-,N/A,,Clear,350,2012-11-18 07:53:00
3:53 AM,66.9,64.9,93,30.03,10.0,North,6.9,-,N/A,,Clear,350,2012-11-18 08:53:00
4:53 AM,66.0,64.0,93,30.04,10.0,North,6.9,-,N/A,,Clear,350,2012-11-18 09:53:00
5:53 AM,66.0,64.0,93,30.04,10.0,North,3.5,-,N/A,,Clear,360,2012-11-18 10:53:00
6:53 AM,64.9,63.0,93,30.07,10.0,NNW,5.8,-,N/A,,Partly Cloudy,330,2012-11-18 11:53:00
7:53 AM,70.0,66.0,87,30.08,10.0,North,11.5,-,N/A,,Clear,360,2012-11-18 12:53:00
8:53 AM,73.0,66.0,79,30.09,10.0,NNE,10.4,-,N/A,,Partly Cloudy,30,2012-11-18 13:53:00
9:53 AM,78.1,66.0,66,30.09,10.0,NNE,10.4,-,N/A,,Clear,30,2012-11-18 14:53:00
10:53 AM,80.1,66.0,62,30.09,10.0,North,16.1,-,N/A,,Partly Cloudy,360,2012-11-18 15:53:00
11:53 AM,79.0,66.0,64,30.07,10.0,NNE,12.7,-,N/A,,Mostly Cloudy,20,2012-11-18 16:53:00
12:53 PM,80.1,64.0,58,30.06,10.0,North,11.5,-,N/A,,Mostly Cloudy,360,2012-11-18 17:53:00
1:53 PM,75.9,66.0,71,30.04,10.0,ENE,8.1,-,0.00,,Overcast,70,2012-11-18 18:53:00
2:53 PM,73.9,68.0,82,30.04,5.0,Calm,Calm,-,0.08,Rain,Light Rain,0,2012-11-18 19:53:00
3:53 PM,75.9,66.9,74,30.04,10.0,North,8.1,-,0.00,,Mostly Cloudy,10,2012-11-18 20:53:00
4:53 PM,75.0,64.0,69,30.04,10.0,North,9.2,-,N/A,,Mostly Cloudy,10,2012-11-18 21:53:00
5:53 PM,75.0,64.0,69,30.07,10.0,NNE,10.4,-,N/A,,Mostly Cloudy,20,2012-11-18 22:53:00
6:53 PM,73.0,64.9,76,30.08,10.0,North,10.4,-,N/A,,Clear,10,2012-11-18 23:53:00
7:53 PM,72.0,64.0,76,30.10,10.0,North,9.2,-,N/A,,Clear,10,2012-11-19 00:53:00
8:53 PM,71.1,64.0,78,30.12,10.0,North,13.8,20.7,N/A,,Clear,10,2012-11-19 01:53:00
9:53 PM,69.1,64.0,84,30.11,10.0,NNE,10.4,-,N/A,,Clear,20,2012-11-19 02:53:00
10:53 PM,69.1,64.0,84,30.11,10.0,NNE,8.1,-,N/A,,Clear,30,2012-11-19 03:53:00
11:44 PM,66.2,64.4,94,30.11,10.0,North,8.1,-,N/A,,Mostly Cloudy,360,2012-11-19 04:44:00
11:53 PM,66.2,64.4,94,30.11,10.0,North,6.9,-,N/A,,Mostly Cloudy,350,2012-11-19 04:53:00